Theta_e
347 337 328 330 328 330 332 339 344 345 345 343 341 339 336 335 334 329 323 321 326 333 332 333 339 342 338 331 330 335 333 333 335 335 334 332 332 332 334 341 344 344 343 343 342 342 341 340 339 339 338 339 340 340 340 339 339 338 338 336 336 335 334 332 332 331 331 333 333 333 333 333 332 333 333 329 328 330 328 328 328 328 329 330 333
347 338 329 330 329 329 332 341 344 346 345 343 341 338 336 335 333 327 322 325 332 333 331 335 339 341 340 334 329 331 332 333 335 334 334 331 333 336 338 341 343 343 345 344 343 343 342 341 340 339 339 340 340 341 340 339 338 338 337 336 334 332 330 330 330 328 327 329 329 330 331 333 333 333 332 327 327 329 329 328 327 327 327 329 333
347 340 330 329 330 329 333 340 344 346 344 344 342 338 336 335 331 325 325 330 334 332 333 338 339 340 340 338 331 329 332 333 334 334 334 335 338 342 344 343 342 343 344 344 343 343 342 342 341 340 340 340 340 340 340 338 337 337 335 332 330 329 331 331 331 330 330 331 330 330 330 331 333 334 333 330 328 329 328 328 327 327 327 329 332
347 342 332 329 329 329 332 340 344 345 345 345 342 339 337 333 329 325 329 334 334 333 337 340 341 341 339 340 336 331 333 336 336 336 338 340 342 343 345 344 343 343 343 343 343 342 341 341 341 340 339 339 339 339 339 338 336 336 332 330 330 331 333 332 332 333 333 334 334 332 331 330 332 334 333 331 329 328 328 328 328 327 328 330 331
347 342 332 329 329 329 333 340 344 345 345 345 342 339 336 333 328 327 333 335 334 336 340 342 342 342 340 339 339 337 337 340 340 340 341 342 344 344 344 344 344 343 342 342 342 342 341 341 341 340 338 339 338 338 338 336 335 333 330 329 332 333 334 334 334 334 334 335 336 335 332 331 332 333 333 333 330 328 329 328 328 328 328 330 330
347 340 334 332 334 336 337 342 344 346 346 344 342 339 336 332 328 331 335 336 335 338 342 343 342 342 341 337 336 337 338 341 341 340 341 342 343 343 343 343 343 342 342 341 341 341 341 340 339 339 338 338 338 338 337 335 335 331 329 332 334 334 335 336 336 336 337 337 339 337 333 333 332 332 332 333 332 329 329 329 329 328 328 328 329
344 342 340 338 341 343 341 344 345 346 346 344 342 339 336 332 330 333 337 337 337 340 342 343 342 341 337 333 331 333 337 340 340 341 340 341 342 341 342 342 342 342 342 341 340 340 340 340 339 339 338 338 337 337 336 335 334 329 330 334 335 335 335 336 336 337 337 338 339 337 333 333 332 331 332 333 332 330 329 329 329 329 328 327 329
343 343 345 344 344 344 343 344 345 345 345 344 341 339 336 331 332 336 338 337 339 342 343 343 341 336 330 326 327 330 337 340 340 341 341 341 341 341 342 341 341 341 341 340 340 339 339 339 339 338 337 338 337 336 336 335 331 327 332 335 335 335 335 335 336 336 337 338 338 336 334 332 331 331 333 333 333 331 329 329 330 329 328 327 327
343 343 346 346 345 343 343 344 344 344 345 344 342 341 336 333 336 339 338 338 342 342 343 342 336 329 324 325 327 328 335 340 341 341 340 341 341 340 340 340 340 340 340 340 339 339 339 339 339 338 337 337 336 336 335 332 328 328 332 335 335 335 336 336 337 337 337 338 337 336 334 333 331 331 333 334 333 331 328 328 328 328 328 327 327
344 345 346 346 344 343 343 343 344 345 344 343 342 341 336 335 339 339 340 341 343 343 342 338 330 327 330 332 333 332 333 337 339 340 340 340 339 339 339 339 339 340 340 340 340 339 339 339 339 339 336 336 336 335 332 329 328 329 332 334 336 336 336 337 337 336 334 336 336 335 334 332 331 331 332 333 332 328 325 327 328 327 327 327 327
345 345 346 346 342 341 342 343 344 344 343 342 342 339 337 338 340 340 342 344 343 343 340 334 330 331 335 338 339 337 336 336 337 338 339 339 338 338 339 339 339 339 339 338 339 339 339 339 340 339 336 335 336 335 331 330 329 330 332 334 336 336 337 338 338 337 332 333 334 335 333 332 331 331 332 332 331 328 326 328 328 327 327 327 327
345 346 346 342 339 340 342 343 343 342 342 342 341 339 338 339 339 341 343 343 342 341 337 333 333 335 337 339 340 339 338 337 337 339 339 339 338 338 338 338 338 337 337 337 338 339 339 340 340 338 335 335 337 338 335 333 331 331 332 334 336 337 337 338 338 337 333 334 335 334 332 332 331 332 332 332 331 329 328 329 328 327 327 327 327
346 347 346 340 340 342 341 342 342 341 341 340 340 340 339 339 339 342 343 341 341 338 334 333 334 336 337 339 340 339 339 338 338 339 339 339 339 338 338 338 338 338 338 337 338 339 339 339 339 337 334 334 335 336 335 333 331 332 333 335 336 337 337 337 337 336 334 336 335 333 331 331 331 333 333 332 331 329 328 329 328 328 327 327 327
346 348 345 341 343 343 341 341 341 340 340 339 339 339 338 339 341 341 341 341 338 335 332 333 336 337 338 340 340 339 339 338 339 339 338 339 339 338 338 338 338 338 337 336 337 338 338 339 338 337 335 333 334 333 333 332 331 331 333 335 336 336 336 337 339 335 333 336 335 333 331 330 332 333 332 332 331 330 328 328 328 327 327 327 326
348 347 344 343 343 342 342 342 341 340 341 340 340 340 340 341 341 340 339 339 335 333 334 336 338 339 339 339 340 340 339 339 339 338 337 338 339 338 337 337 337 337 336 336 337 337 337 338 338 339 337 335 334 333 333 333 332 331 332 334 334 336 337 338 339 335 334 336 335 333 330 330 332 332 332 332 331 330 329 327 327 327 327 326 327
347 346 345 343 343 342 342 341 342 342 342 343 344 343 342 342 340 339 337 334 332 335 338 340 341 341 340 340 340 340 339 339 339 337 336 335 335 335 335 335 335 333 333 334 336 336 337 338 338 338 337 335 334 333 333 333 331 330 331 332 334 336 336 338 339 335 335 336 335 332 329 330 332 332 332 331 330 330 329 328 327 326 327 327 327
346 345 345 343 342 343 342 341 342 343 344 343 343 343 341 339 338 335 334 335 336 339 340 341 341 340 340 340 340 339 338 339 337 337 336 334 334 333 333 333 333 331 329 329 330 332 334 335 336 336 336 335 334 333 332 332 329 329 331 333 334 336 337 338 338 335 335 335 335 332 327 329 332 332 332 331 330 330 329 328 327 327 327 326 326
346 344 344 343 342 343 343 341 341 343 342 341 339 340 338 336 335 334 336 339 341 341 341 340 339 339 339 338 338 337 337 337 337 337 336 335 335 334 333 333 332 328 324 324 326 328 329 330 333 334 334 333 333 332 331 331 328 330 333 333 335 336 337 338 336 334 336 336 335 331 327 327 330 331 331 330 330 330 329 329 328 326 326 326 326
346 344 343 342 342 343 343 341 341 341 339 337 334 334 333 333 335 335 338 340 340 341 341 340 339 337 337 336 336 336 336 337 338 337 336 335 334 335 334 331 328 324 321 323 325 326 327 328 330 331 332 331 332 331 331 330 328 332 333 334 336 336 337 338 336 334 335 336 335 330 326 327 329 331 331 331 330 329 329 328 327 325 324 325 325
346 344 343 341 340 341 342 340 340 339 337 335 331 330 330 332 336 336 337 337 337 339 340 339 337 336 335 334 334 334 335 337 337 336 335 334 334 335 333 327 323 321 321 324 325 326 326 326 326 327 328 329 331 330 331 329 328 332 333 333 335 335 337 338 336 335 335 335 334 329 326 328 330 332 331 330 330 330 329 328 328 326 325 323 322
346 344 343 342 340 341 341 340 339 338 337 336 332 330 331 333 336 335 335 335 336 336 336 334 333 333 332 332 331 332 332 332 332 332 332 333 333 335 331 325 324 322 322 324 325 325 324 324 324 324 325 328 330 331 331 330 329 332 333 332 334 336 337 336 334 334 335 334 332 328 327 328 331 332 331 329 329 329 329 329 328 328 327 322 319
344 345 344 342 341 341 341 340 339 339 339 337 333 332 333 334 333 333 335 335 334 332 331 330 330 331 330 330 330 331 331 330 331 330 331 333 334 333 329 325 326 324 323 324 324 324 324 324 323 323 324 326 329 330 330 330 329 332 333 331 333 336 338 335 333 334 334 333 330 327 327 330 332 332 330 329 329 329 329 329 328 327 327 321 315
342 345 344 340 339 340 341 340 339 339 338 336 334 334 334 333 332 335 337 334 331 329 330 331 331 330 329 331 333 333 332 332 333 331 332 335 336 331 327 328 328 327 325 324 324 325 325 324 323 323 323 324 326 328 329 328 328 331 333 331 332 336 337 335 333 334 334 332 329 327 328 331 332 332 331 330 329 329 329 328 328 328 327 321 313
342 344 343 338 338 340 341 339 339 338 338 337 336 335 334 334 335 336 334 330 329 331 331 331 331 330 331 334 335 334 334 335 333 333 335 336 335 330 328 329 329 328 326 325 325 326 325 324 323 323 324 325 327 329 330 330 328 330 332 332 333 337 337 335 333 334 334 332 329 326 327 331 332 332 331 330 329 330 329 329 329 328 327 321 312
342 342 341 339 339 339 339 339 338 338 338 338 337 336 336 336 336 336 331 329 332 334 332 331 331 331 334 336 335 335 336 335 334 334 335 335 334 331 331 331 331 331 329 329 330 331 329 327 326 324 327 330 330 331 333 332 330 330 331 332 334 337 337 335 333 334 334 332 328 324 326 331 332 332 331 330 330 330 329 329 328 327 326 321 314
342 342 340 339 339 339 338 338 339 338 338 337 338 338 338 337 337 335 332 334 336 334 332 333 333 333 335 337 335 335 336 336 335 335 335 334 334 334 335 334 333 334 332 332 333 334 332 332 331 329 330 332 332 332 332 332 331 331 332 334 335 336 337 335 333 334 333 331 326 321 326 331 332 331 331 330 330 330 330 329 328 326 326 324 321
343 342 340 339 338 337 338 339 339 339 338 338 339 339 338 337 337 336 336 336 336 334 335 334 333 334 335 337 335 334 335 336 335 335 334 334 334 335 335 335 335 334 332 332 332 333 332 333 333 331 331 333 332 331 330 331 331 332 332 334 336 336 336 334 335 335 332 328 322 320 326 331 332 332 331 330 330 330 329 329 328 326 327 327 326
343 340 338 336 336 338 339 339 339 339 339 339 339 339 338 337 337 337 337 336 335 336 337 335 334 335 335 336 336 335 335 335 334 334 334 334 334 334 334 334 334 333 333 332 331 331 331 331 332 331 331 332 331 330 329 329 330 331 332 334 335 335 334 333 335 335 331 324 321 322 327 331 332 332 330 330 330 330 329 329 328 327 328 328 327
343 339 337 337 336 338 339 339 339 340 340 339 338 338 338 338 337 336 336 336 336 337 336 334 335 336 336 335 335 335 334 334 334 334 335 334 334 333 332 332 333 332 332 331 330 331 331 331 331 331 331 330 330 329 329 329 329 331 331 333 335 334 333 333 335 335 331 325 322 323 327 330 331 331 331 330 330 330 329 329 328 327 327 327 327
342 339 338 339 338 338 340 341 340 340 339 340 339 339 339 338 337 335 335 336 336 336 335 335 336 337 335 334 333 333 332 332 332 334 335 335 334 333 333 333 332 332 332 332 332 332 332 332 332 332 331 330 329 327 328 328 328 330 330 331 333 334 332 331 334 334 333 328 323 323 326 329 331 331 331 330 329 330 330 330 329 327 326 327 327
342 340 340 339 338 339 340 340 340 339 339 339 340 339 340 338 337 336 335 336 336 335 334 334 336 336 335 335 333 331 331 332 332 334 335 335 335 335 335 335 334 334 334 334 334 333 333 333 332 332 331 330 328 327 329 329 328 329 330 331 331 333 330 330 332 333 334 331 325 323 326 328 329 330 330 330 330 330 329 329 329 328 327 327 327
342 341 339 337 337 338 339 339 339 339 339 338 339 340 340 338 337 336 335 335 334 334 335 334 336 336 335 335 334 333 333 334 334 335 335 336 336 335 335 335 334 334 334 335 334 333 333 333 333 332 330 329 328 328 329 329 329 328 330 331 331 332 330 329 330 332 333 330 326 324 325 327 328 328 328 330 330 329 329 329 328 328 328 327 327
342 341 339 336 336 338 338 339 339 339 339 339 340 340 340 339 338 337 336 335 334 334 336 336 337 336 335 336 336 335 334 334 335 335 335 335 334 334 334 334 334 334 334 333 332 333 333 332 333 332 330 330 329 328 328 329 329 328 329 330 330 330 329 329 329 331 333 330 327 326 326 325 326 327 327 328 328 328 328 329 329 329 329 328 327
342 341 340 338 337 338 339 339 338 338 339 338 339 339 339 338 338 338 337 336 336 336 337 337 338 337 336 336 335 335 335 334 335 335 334 334 334 334 333 334 335 334 333 332 332 332 332 332 331 331 331 330 329 329 329 329 328 328 329 329 329 330 329 329 329 331 332 331 330 330 328 326 327 328 328 328 328 328 328 329 329 328 329 328 328
341 341 341 339 338 340 340 340 339 338 338 338 338 338 338 337 337 338 338 338 337 337 338 337 337 336 336 336 335 335 335 335 335 335 334 335 335 334 334 334 335 334 333 332 332 333 332 332 330 331 331 330 330 330 329 329 329 329 329 329 329 329 329 329 330 331 331 331 331 331 330 329 329 329 329 329 329 328 328 328 328 327 327 327 328
341 341 340 338 338 340 341 341 339 337 338 337 337 338 337 337 337 338 338 338 338 337 338 337 337 336 336 336 336 336 335 335 334 334 335 335 334 334 333 334 335 334 333 333 333 333 333 332 331 331 330 330 330 330 329 330 330 330 329 329 330 330 330 330 330 330 331 332 331 331 331 330 331 331 328 328 328 328 329 329 328 328 328 328 329
341 340 340 338 339 340 340 341 339 337 337 337 337 337 337 337 337 338 339 339 338 337 337 337 337 337 336 335 336 336 336 336 334 334 334 334 333 333 333 334 334 334 333 333 333 333 334 333 332 331 330 331 330 329 330 330 330 330 330 330 330 331 331 332 331 330 330 331 331 330 331 331 331 331 329 328 328 328 328 328 328 329 329 329 329
340 340 340 340 340 340 340 340 338 338 338 337 337 338 338 338 338 338 339 338 337 337 336 336 336 336 336 336 336 336 335 335 334 334 334 333 334 333 333 333 333 333 333 332 333 332 333 334 333 332 332 333 332 330 330 331 330 330 330 330 330 330 331 332 332 331 331 330 331 330 330 331 331 331 330 330 329 328 328 328 328 328 328 329 329
340 339 339 338 339 339 340 339 338 339 339 338 339 339 338 338 338 339 338 338 336 335 334 334 334 334 335 335 336 336 335 335 334 334 333 332 333 332 332 332 332 333 333 331 332 333 332 333 333 334 334 334 334 332 330 330 331 329 329 329 330 330 331 331 331 331 331 331 332 331 330 331 331 330 330 330 331 330 329 329 329 329 329 329 329
340 340 338 337 337 338 339 339 339 339 339 339 340 339 339 338 338 338 338 336 335 334 333 332 332 333 333 335 336 335 335 336 335 333 332 332 332 331 331 332 332 333 333 331 332 333 332 333 333 333 333 333 333 332 330 330 331 330 329 329 330 330 331 331 331 331 331 330 331 331 331 331 331 331 330 330 331 331 331 330 330 330 330 330 330
340 340 338 336 336 337 339 339 339 340 339 339 339 338 338 338 337 337 335 334 333 333 332 331 332 332 333 334 335 336 335 335 335 334 333 332 331 331 331 332 332 332 332 331 331 332 332 333 333 332 333 332 332 331 330 330 330 330 330 329 330 331 331 332 332 330 329 329 330 329 330 330 331 331 331 330 330 330 330 330 331 331 330 330 330
340 340 338 334 333 334 338 339 338 340 339 339 338 336 336 336 335 334 332 331 331 331 331 331 333 333 333 334 334 334 334 335 334 334 333 332 331 331 331 332 332 331 331 331 332 332 332 333 333 331 331 331 331 330 330 330 329 329 330 330 331 332 331 331 331 331 329 329 329 329 329 329 330 330 330 329 329 329 329 329 328 328 328 328 328
340 339 337 333 329 330 337 339 337 337 338 338 336 334 334 333 333 332 330 329 329 329 329 330 332 333 333 334 333 333 333 333 334 333 332 333 332 332 333 332 332 332 332 332 333 332 332 333 333 332 331 330 330 331 331 330 329 328 329 331 333 333 331 330 331 331 330 330 329 329 328 328 330 329 328 329 328 328 328 327 327 326 327 327 326
340 339 336 332 329 332 337 338 337 337 338 336 335 334 333 332 332 331 331 332 331 330 328 328 331 332 332 333 332 332 332 332 332 332 332 333 332 333 333 333 332 332 332 331 332 332 332 332 332 331 331 330 331 331 331 331 329 329 330 331 331 332 332 331 331 330 329 330 329 327 328 328 328 328 327 328 327 327 327 326 326 326 327 326 327
340 339 334 331 331 334 337 338 338 338 336 335 334 334 334 333 332 331 332 331 330 328 328 328 328 329 331 332 331 331 330 330 330 331 331 331 332 332 332 332 332 332 332 331 332 332 332 332 331 331 331 330 330 330 331 331 330 330 331 332 331 332 333 331 330 331 328 329 328 327 327 327 327 327 327 326 326 326 326 325 325 325 326 326 325
339 338 332 330 331 333 336 338 338 337 335 334 334 334 334 333 333 331 328 328 327 329 329 328 326 326 328 329 329 330 329 328 329 329 329 329 329 329 329 330 331 331 331 331 332 332 331 331 331 330 330 330 330 329 330 331 330 329 330 331 331 332 331 330 331 332 329 329 328 327 327 327 327 327 326 325 324 324 324 324 324 324 324 324 323
338 335 331 330 331 333 336 338 338 336 332 330 330 332 333 334 333 329 326 327 328 328 328 327 326 325 325 327 328 329 329 329 328 327 326 327 327 327 328 328 329 329 330 330 331 331 331 331 330 330 331 330 330 329 328 328 328 328 330 330 330 330 330 330 331 331 330 329 327 326 326 326 326 326 325 325 323 323 322 321 322 322 322 321 321
335 331 329 329 331 334 336 337 336 333 329 326 327 331 333 333 332 328 326 328 329 327 327 327 325 324 325 326 326 327 327 327 327 326 326 327 328 328 328 327 327 327 328 328 329 330 331 331 331 331 331 330 330 329 328 327 327 328 329 328 329 331 331 330 330 329 329 329 327 326 325 325 325 324 324 323 321 321 320 320 320 319 319 319 318
332 330 331 332 333 335 336 336 334 332 329 328 329 332 333 332 331 329 328 329 328 327 328 326 324 324 325 326 326 327 327 327 326 326 326 327 328 328 328 327 326 326 326 327 329 330 330 330 331 331 331 330 330 330 328 327 327 327 327 327 329 330 330 330 329 328 328 328 327 326 324 323 322 321 321 320 318 318 318 319 318 317 317 316 314
331 331 332 333 334 335 335 334 333 332 329 327 331 333 331 331 331 330 329 328 327 326 325 324 324 326 327 327 327 327 328 327 327 326 326 327 327 327 327 327 326 326 326 327 328 329 330 330 330 330 330 330 330 329 329 329 328 327 327 328 328 329 329 329 328 328 328 328 327 325 323 323 322 321 320 318 317 316 316 317 317 317 317 316 314
329 331 332 333 335 335 332 331 330 328 325 325 331 332 329 330 331 330 328 326 325 324 324 324 325 327 328 328 327 327 327 327 327 327 327 326 326 326 326 326 326 326 326 326 326 328 329 329 330 330 330 330 330 330 329 329 328 328 327 327 326 327 327 327 328 328 328 328 327 325 323 322 321 321 320 317 315 315 315 315 316 317 316 316 315
Wind_Speed
19 25 26 23 22 20 18 18 19 20 20 20 21 22 22 22 21 21 21 22 21 22 21 20 19 18 19 19 19 19 21 22 22 21 19 17 16 15 15 16 16 15 15 15 16 16 15 14 14 14 12 11 12 13 13 13 13 12 13 15 15 14 15 16 17 17 18 17 17 19 19 18 18 18 18 16 19 20 17 17 16 16 17 17 18
20 24 25 24 23 20 19 19 20 21 21 21 21 22 23 22 22 21 22 23 22 22 21 20 18 18 18 18 19 20 20 20 19 18 17 15 14 14 14 15 15 14 14 13 14 14 13 14 14 13 13 12 13 12 12 12 11 12 13 14 13 14 15 16 16 17 18 17 17 20 20 19 19 18 19 18 19 20 19 18 17 17 17 17 18
21 23 24 23 22 20 20 20 21 21 21 21 22 23 23 23 22 23 23 23 22 23 21 19 18 17 16 17 18 19 19 18 17 16 14 13 13 13 14 14 14 13 13 13 13 12 12 13 13 13 13 13 13 12 12 11 12 12 12 12 13 15 15 15 16 17 19 20 21 22 20 19 19 18 18 20 20 20 20 19 18 17 17 17 17
21 21 23 22 21 20 20 20 21 21 21 21 22 23 23 23 23 23 23 23 23 22 20 18 17 16 15 15 17 18 18 17 16 15 14 13 13 13 13 14 14 14 13 12 11 11 11 12 12 12 12 12 12 12 11 11 12 12 11 13 15 16 14 14 13 15 18 20 22 20 19 20 19 18 18 19 19 19 19 18 18 17 17 17 18
22 21 23 21 20 19 19 21 21 21 21 21 22 23 23 23 24 24 23 24 23 21 18 17 15 14 14 15 16 16 16 16 15 14 14 13 12 12 12 12 13 14 13 12 11 11 11 11 12 11 11 11 11 11 10 10 11 11 13 16 16 15 14 13 12 12 13 13 16 16 18 20 18 17 17 17 17 18 18 18 17 16 16 16 18
22 21 22 20 18 18 20 21 21 20 20 21 22 23 23 24 23 23 24 24 23 20 17 16 14 13 13 14 14 15 15 16 15 13 13 12 12 11 11 11 12 13 12 12 10 10 11 11 11 11 11 11 11 10 9 9 10 12 16 18 17 15 14 13 12 10 9 7 10 14 15 16 16 16 15 16 16 17 17 17 16 15 15 14 16
21 22 19 19 17 18 21 21 20 20 21 21 22 23 23 24 23 24 25 24 21 18 16 15 13 13 13 13 14 14 15 15 14 12 12 12 12 11 11 11 11 11 11 11 10 10 10 10 10 10 11 10 10 9 9 8 9 14 17 18 17 15 12 10 9 8 7 6 8 13 14 14 15 15 14 14 15 16 17 16 16 16 15 15 15
21 20 18 18 16 19 22 20 20 20 21 22 23 23 23 24 24 25 24 22 20 17 16 14 13 13 13 13 13 14 15 15 14 13 12 12 12 12 11 11 11 10 10 10 10 10 10 9 10 10 10 10 10 9 8 8 10 16 18 17 15 13 10 8 7 5 5 8 10 13 14 14 15 14 13 14 15 16 17 16 16 17 16 16 16
21 19 18 17 16 21 22 20 20 20 21 22 22 22 23 24 24 24 23 20 18 16 15 14 13 13 13 13 13 14 14 15 15 13 12 12 12 12 11 11 11 10 10 10 10 10 9 9 9 9 10 9 10 9 8 9 12 15 16 14 13 11 10 8 8 8 8 10 14 16 15 14 14 14 13 13 14 14 15 16 16 17 17 16 16
21 19 18 15 18 22 21 21 20 20 21 21 22 22 24 25 24 23 21 18 16 16 15 14 14 14 14 13 13 13 13 14 14 13 11 10 10 11 12 11 11 11 10 10 10 10 9 9 9 9 9 9 9 9 8 10 12 13 13 12 11 10 9 9 8 12 13 11 13 16 14 14 15 14 13 12 12 11 13 16 17 17 17 16 17
20 19 18 15 19 22 21 21 20 21 21 22 22 23 25 25 24 22 19 17 16 15 15 15 15 14 13 12 12 12 13 13 13 12 11 10 11 12 12 11 11 11 10 10 10 9 9 9 9 9 8 8 9 9 9 9 10 10 10 9 9 9 9 8 8 11 12 12 14 14 14 15 15 14 13 12 12 12 15 17 17 17 17 17 17
19 20 18 17 21 23 22 22 22 21 21 23 23 23 24 25 23 20 18 17 16 16 15 15 14 13 12 11 11 12 13 13 13 11 10 11 11 11 11 11 11 10 10 10 10 9 8 8 8 8 6 7 8 7 7 7 8 8 7 8 9 8 9 8 9 10 10 13 16 15 15 15 15 14 13 13 13 14 16 17 17 17 16 16 16
20 20 18 19 21 23 24 23 23 22 23 23 24 24 24 24 22 19 17 17 16 16 16 15 14 13 12 12 11 12 13 13 12 11 10 10 9 9 10 11 11 11 10 10 10 10 9 8 8 6 5 6 5 4 5 5 4 5 6 7 7 6 6 8 11 10 10 13 15 14 15 15 15 12 12 13 13 14 15 16 16 16 15 16 16
21 20 20 20 21 23 24 24 24 23 24 24 25 24 24 22 20 18 18 18 17 16 16 15 13 12 12 13 12 12 14 13 12 10 10 8 7 8 9 9 10 10 10 10 10 11 11 10 9 6 5 6 5 4 4 3 2 4 6 7 6 5 5 7 10 9 9 13 15 13 14 15 14 11 11 13 13 13 14 14 15 15 15 16 15
22 21 21 21 21 23 24 24 25 24 24 25 24 23 22 20 18 18 19 19 18 16 15 14 13 12 13 13 13 13 13 13 11 10 9 8 7 8 8 8 9 8 8 8 8 9 9 9 9 6 5 5 5 5 3 2 3 3 6 7 6 5 5 6 8 9 10 14 15 13 13 15 13 10 12 13 13 13 13 13 14 15 15 15 15
21 21 21 22 22 22 22 23 24 23 23 22 21 20 19 18 18 19 19 19 18 16 14 14 13 12 13 14 14 12 11 11 11 9 9 8 8 8 7 7 7 7 7 7 7 7 7 8 8 6 5 5 5 4 3 3 2 3 5 7 5 5 6 7 9 9 9 11 12 12 13 16 13 10 12 12 12 13 12 12 13 14 14 14 14
21 21 21 22 22 21 20 21 22 21 20 20 20 19 18 18 19 20 19 17 16 16 15 15 14 13 13 14 13 12 11 11 11 10 8 8 7 7 6 6 6 5 4 5 5 6 6 6 6 6 5 5 5 4 3 3 2 2 4 6 6 6 6 7 10 9 9 12 13 12 13 14 13 10 11 12 12 13 12 11 12 13 13 13 14
21 21 21 22 22 20 20 19 19 20 20 20 20 18 19 20 20 19 17 15 15 15 14 14 14 13 13 12 12 11 11 11 10 9 7 7 6 6 5 4 4 3 2 3 4 6 6 6 6 6 5 5 6 6 5 4 2 2 4 6 7 6 7 10 11 9 9 15 16 12 11 12 13 11 11 11 12 11 11 11 11 12 13 12 13
20 21 21 21 20 18 19 20 19 21 22 21 20 20 20 21 19 19 17 15 15 13 13 13 13 12 11 11 11 11 10 9 8 6 5 5 5 4 4 3 2 1 1 3 4 5 5 5 6 7 7 7 7 7 6 5 3 2 5 8 8 6 7 8 9 8 7 11 11 9 10 10 12 12 11 11 11 11 11 11 10 10 12 12 11
18 20 21 20 20 19 19 20 20 23 25 24 23 22 22 21 18 17 16 15 15 14 12 11 11 11 11 11 11 11 11 9 7 6 4 3 4 4 3 2 0 1 0 2 3 3 3 3 4 6 7 7 7 7 6 5 4 3 7 10 9 7 7 5 6 9 8 8 7 8 9 10 12 12 11 11 10 11 11 10 10 10 10 11 11
16 17 19 18 20 21 20 20 20 22 25 25 25 24 22 21 18 16 16 15 15 14 12 11 11 11 11 12 12 11 11 10 8 7 6 5 5 4 3 2 0 1 1 1 2 2 1 2 2 3 5 6 7 7 6 5 4 4 8 11 9 6 7 6 7 10 10 9 7 8 9 10 13 12 11 11 10 11 10 10 10 9 9 10 10
14 14 15 15 17 20 18 19 19 21 25 26 25 24 22 22 20 17 16 15 15 15 14 14 13 13 13 13 13 12 11 10 9 9 8 6 5 6 4 3 1 1 1 0 1 1 1 1 1 1 3 6 7 7 6 6 6 5 7 11 9 5 6 6 7 8 9 9 8 9 9 11 13 11 11 11 10 10 9 9 8 7 8 10 10
13 12 11 11 14 18 19 20 23 24 25 26 24 23 23 22 21 19 19 17 17 17 17 16 15 15 14 13 12 11 11 10 10 8 7 7 6 6 5 3 2 1 1 0 1 1 1 2 2 0 2 4 8 9 7 5 6 7 7 10 8 4 4 6 8 8 7 7 8 9 10 12 12 11 11 11 10 10 9 8 7 7 8 10 10
13 11 12 16 17 19 22 23 26 27 25 25 25 24 23 22 22 21 21 20 19 18 17 17 16 15 14 13 12 11 12 10 10 9 9 8 6 6 5 4 3 2 1 1 2 3 4 3 2 1 1 4 6 8 8 8 6 6 8 10 8 4 4 6 10 11 9 7 9 8 10 13 12 11 11 10 10 9 9 9 8 7 7 10 11
14 12 12 14 15 18 23 24 26 27 25 27 27 26 25 23 23 22 22 22 19 19 18 18 17 17 15 14 13 13 12 10 10 10 10 8 6 6 6 4 4 3 2 1 1 3 5 5 4 3 3 3 7 8 10 11 8 5 7 9 7 7 8 7 10 13 11 9 8 7 10 13 13 11 11 10 10 9 9 8 7 6 7 10 11
14 14 13 11 12 16 24 26 27 27 27 28 28 26 24 24 23 22 23 21 19 20 20 19 19 18 16 14 14 12 11 10 9 9 9 9 8 8 7 6 6 6 5 3 3 2 4 6 7 7 9 10 12 12 10 10 9 8 8 9 9 10 10 8 9 12 10 8 8 7 10 13 12 11 11 11 10 9 8 8 7 7 8 10 11
13 14 15 12 15 18 23 27 27 28 28 26 24 23 22 23 23 23 22 21 20 21 19 19 19 17 15 13 12 11 10 9 9 8 9 9 9 10 10 9 9 8 7 5 5 3 3 6 8 10 10 11 13 10 8 8 7 8 10 10 10 11 11 10 11 12 10 9 9 8 11 13 12 11 11 10 9 10 9 8 7 6 8 9 9
14 15 16 16 21 21 23 27 27 27 26 22 20 20 20 21 23 23 21 20 20 18 17 17 16 14 13 13 11 10 10 9 9 9 10 11 10 11 12 10 9 7 6 6 4 2 2 6 10 11 9 9 12 10 8 8 8 7 9 10 11 11 10 12 13 12 11 10 11 10 12 13 12 11 11 10 10 10 9 8 7 6 7 6 6
16 18 18 20 25 25 23 26 27 26 24 21 20 21 20 20 21 21 20 19 17 15 15 14 12 12 12 10 10 10 11 11 10 8 8 10 10 11 11 10 8 4 3 4 4 2 3 7 11 10 8 9 8 7 10 9 9 8 7 8 10 10 9 14 15 13 10 10 11 11 12 13 13 11 10 10 10 10 9 8 7 7 6 4 4
19 20 20 21 25 27 24 23 25 26 24 21 20 21 19 19 19 19 19 18 16 15 14 12 10 11 11 10 10 10 11 10 9 7 7 7 7 7 7 6 4 2 3 3 3 4 5 6 10 8 7 8 6 4 8 10 9 8 7 7 9 7 11 18 16 14 12 9 9 11 12 13 14 13 11 11 9 9 9 8 7 7 6 3 3
21 21 21 22 23 25 22 20 22 24 22 20 20 20 18 18 17 18 18 16 15 14 13 11 10 11 12 11 10 11 11 10 8 8 7 5 4 5 5 3 4 4 4 4 4 5 5 6 8 7 5 5 6 4 5 11 9 8 8 7 9 6 13 16 12 13 13 9 10 11 12 12 13 13 13 12 10 9 8 8 7 7 6 4 3
20 20 22 23 21 22 22 20 21 22 21 20 20 19 18 17 15 16 16 14 14 13 11 11 10 11 13 13 12 12 14 13 12 10 9 7 6 5 4 4 5 6 5 5 7 6 5 5 6 5 4 4 6 4 4 10 8 6 9 8 8 6 15 12 12 15 14 12 12 11 12 11 11 12 12 12 11 10 8 8 7 6 6 6 4
19 19 21 24 23 22 23 22 22 22 21 21 20 19 19 17 15 15 14 13 13 11 11 11 9 9 11 14 13 14 14 13 12 11 10 9 6 5 6 5 5 7 7 7 8 7 6 5 4 4 4 4 5 5 4 6 7 6 6 8 7 11 19 13 12 16 14 14 14 11 11 11 11 10 10 10 9 10 10 8 7 6 6 6 5
19 19 20 23 22 21 22 23 23 23 21 21 20 18 17 16 15 14 13 12 12 11 11 11 10 9 9 11 11 12 12 11 10 11 9 7 6 6 7 7 5 5 7 7 8 7 6 5 5 5 5 4 4 5 4 4 5 7 6 2 4 12 15 10 12 15 14 14 15 13 11 11 11 10 9 8 8 9 10 9 7 7 7 7 5
20 19 20 21 20 20 21 21 23 22 20 19 18 16 16 15 14 13 13 12 11 11 10 10 10 9 9 8 8 10 11 10 10 10 9 7 7 7 8 7 6 5 6 7 8 7 6 5 5 4 4 4 3 3 4 4 4 3 5 7 10 14 14 13 15 16 15 14 15 15 13 12 11 9 9 8 7 8 8 8 7 7 8 7 7
19 20 20 20 19 19 18 20 22 21 19 18 16 16 15 14 12 12 12 11 10 11 10 9 8 9 9 8 9 10 10 10 9 9 8 8 8 9 8 8 7 6 6 6 7 6 5 5 4 2 3 4 2 2 2 2 2 5 6 6 12 13 16 16 15 16 16 13 13 14 13 13 12 10 10 9 8 8 8 8 8 8 7 7 7
18 21 21 20 19 17 17 19 20 19 18 17 15 15 15 13 12 11 11 10 9 9 8 8 7 8 8 8 10 11 10 10 9 9 10 10 11 9 8 8 7 5 6 7 8 7 4 3 3 2 2 2 0 0 1 2 3 7 9 9 11 9 12 14 13 14 14 12 11 12 12 12 12 10 9 9 9 8 7 7 7 6 6 6 6
17 20 20 19 18 17 17 18 18 18 17 16 16 15 14 13 11 10 10 8 7 7 7 6 6 6 6 7 9 10 10 9 9 9 10 12 11 9 9 9 7 6 7 7 7 7 5 4 3 2 2 3 2 2 1 3 7 8 9 11 9 5 9 11 11 10 10 11 11 10 11 12 11 9 9 9 9 8 7 6 6 5 5 5 5
17 20 21 20 19 18 17 18 18 17 15 15 16 15 13 12 10 10 9 8 7 7 6 6 6 5 6 6 8 9 9 9 9 8 9 11 10 8 10 9 8 7 6 6 6 7 6 5 4 4 3 3 2 2 2 4 8 7 7 9 6 3 6 8 9 8 9 10 12 11 10 11 10 9 10 8 7 8 7 5 5 5 4 3 2
19 21 21 19 19 19 18 18 17 16 16 15 14 13 13 12 10 9 8 8 7 6 5 6 6 5 5 6 7 8 8 9 8 7 7 10 9 10 10 9 8 9 7 7 6 7 7 6 5 5 4 3 2 1 2 4 5 6 7 7 4 2 3 6 6 7 9 10 11 10 8 9 9 9 8 6 6 6 5 5 4 4 4 3 2
18 20 21 19 18 19 20 20 17 16 16 15 13 13 12 11 11 10 8 8 8 7 6 6 6 7 7 5 6 7 8 9 9 8 7 8 9 10 10 9 8 9 9 8 6 6 7 5 4 6 6 5 4 2 3 6 5 5 6 5 4 4 4 5 4 5 9 10 10 8 6 7 9 9 8 6 5 6 5 5 5 5 5 4 4
17 19 21 19 18 19 19 20 18 16 16 13 12 12 11 11 10 9 8 8 7 7 7 7 7 8 7 6 6 7 7 8 9 8 7 7 8 9 9 9 8 9 9 8 7 6 6 5 4 5 6 7 5 4 4 5 5 6 4 2 3 4 3 4 5 6 9 12 12 9 6 7 8 9 9 7 6 7 8 8 8 8 7 7 8
17 18 18 18 18 17 17 19 20 17 16 13 11 10 10 9 8 7 8 9 8 8 9 8 8 8 8 7 7 7 7 8 8 8 8 8 9 10 10 10 8 8 8 8 8 6 5 5 5 5 5 7 6 4 4 4 6 8 4 1 2 3 2 3 5 7 9 12 13 11 8 10 11 10 9 10 10 12 12 12 10 9 8 9 10
17 18 17 19 20 17 17 19 19 17 16 13 12 11 10 8 8 7 9 11 11 10 10 8 8 8 8 8 8 7 7 8 8 8 9 9 10 10 11 11 9 8 9 8 8 8 7 7 8 7 7 7 6 5 4 4 6 8 3 2 3 2 1 2 4 7 9 11 14 14 11 11 13 11 12 14 15 14 13 12 10 8 8 11 11
16 17 18 19 18 17 18 19 18 17 16 14 14 15 12 9 9 8 9 12 11 9 9 8 7 7 8 8 8 7 7 8 7 8 10 9 8 8 8 9 9 9 9 9 8 9 9 9 9 8 8 7 6 5 3 3 4 6 5 2 3 0 1 4 5 5 8 10 12 13 13 14 13 12 14 17 16 15 13 11 11 11 12 13 11
16 16 17 17 16 15 16 18 19 19 17 16 16 17 14 10 7 7 8 9 8 7 8 8 7 7 8 8 7 7 7 7 7 9 10 8 7 7 6 6 6 6 7 7 8 8 8 8 8 8 7 6 6 6 4 4 4 4 6 4 1 2 4 7 4 2 7 9 11 12 14 15 14 14 17 17 17 15 14 13 13 14 14 13 11
13 15 20 19 17 16 13 16 21 21 19 18 16 18 16 9 6 6 7 7 7 8 8 7 7 8 9 8 7 7 7 7 7 8 8 7 7 7 5 6 6 5 4 4 5 5 6 5 6 7 6 5 5 6 5 4 4 4 6 5 1 4 8 7 3 3 4 7 11 13 15 15 14 15 15 14 14 13 14 15 15 15 15 13 12
14 21 26 22 20 18 14 18 22 21 20 18 16 17 15 10 7 6 6 7 8 9 8 7 7 8 8 7 7 7 7 7 7 6 7 7 7 7 5 5 6 6 5 3 2 3 5 5 4 5 6 5 5 6 6 5 6 7 7 5 3 5 7 6 6 7 5 4 7 9 13 16 14 12 11 10 12 13 15 15 14 13 12 11 10
20 26 29 26 23 21 18 21 21 20 20 18 16 15 14 12 8 6 7 7 9 9 7 6 8 8 7 7 7 8 7 7 6 6 7 7 7 7 6 5 4 6 6 4 4 5 5 5 5 5 6 6 6 7 7 9 10 10 9 8 5 6 5 6 7 8 8 6 4 4 10 14 13 13 13 12 13 13 14 13 13 12 9 8 9
23 28 30 28 24 21 21 22 20 19 18 17 17 16 15 14 9 7 7 10 10 8 7 7 8 7 7 6 7 7 6 6 6 5 6 7 7 8 7 6 6 6 7 7 6 7 6 7 6 5 6 6 6 7 8 9 10 11 11 9 8 8 5 5 6 7 8 6 4 6 11 11 10 12 15 14 13 13 13 13 14 13 9 6 8
22 26 28 28 25 21 23 22 19 18 17 16 17 16 17 16 11 8 9 12 10 9 9 8 7 7 6 6 6 6 6 7 6 5 6 7 6 7 7 7 8 7 7 7 6 7 8 8 8 8 7 7 8 9 9 11 11 12 12 9 9 9 6 6 6 7 6 5 5 6 10 13 11 12 14 15 15 14 13 13 12 12 9 5 6
Wind_Direction
131 143 145 148 149 150 153 156 159 162 163 160 160 160 159 155 149 147 146 146 144 140 137 130 124 120 117 118 120 119 121 122 122 123 122 118 113 110 107 105 104 105 104 103 99 99 99 94 91 90 89 90 87 86 87 90 90 91 91 87 84 86 90 95 97 93 92 93 92 85 76 72 69 65 61 62 70 70 70 75 78 77 71 64 65
132 144 147 149 149 151 155 158 160 163 163 161 162 161 159 154 149 148 148 147 144 140 136 131 127 123 122 123 124 124 125 125 126 126 123 118 113 107 105 107 104 103 105 104 102 99 97 94 95 97 96 93 89 87 93 95 93 91 91 91 89 92 94 96 97 93 91 90 92 88 80 75 70 69 66 64 71 69 69 73 77 79 77 74 69
129 140 148 150 149 152 157 159 161 164 163 161 162 161 157 152 149 148 148 147 142 139 136 132 130 128 127 127 129 130 129 128 128 128 124 119 115 110 107 110 108 104 103 101 101 100 100 100 100 99 97 96 94 89 90 93 92 91 92 96 97 99 98 95 95 95 94 87 85 86 83 78 71 71 71 71 73 72 72 74 78 80 79 78 69
125 136 149 150 151 154 157 160 163 164 162 161 161 159 156 152 149 149 149 145 142 139 137 135 132 130 131 132 133 134 132 129 128 127 125 122 117 115 113 115 115 112 109 105 104 103 104 104 102 100 99 99 99 95 91 92 92 94 97 100 102 103 103 102 102 103 103 92 84 81 78 77 74 71 72 75 75 73 74 76 77 80 81 78 71
124 138 148 148 152 154 157 160 163 162 160 160 159 158 154 151 150 150 149 146 144 141 139 137 133 130 131 135 137 136 135 131 129 128 125 122 119 118 116 116 117 115 114 111 108 106 105 104 103 101 103 104 103 99 97 99 97 102 106 106 107 106 106 106 108 109 112 97 82 79 76 78 76 71 71 73 75 76 76 77 77 82 84 78 74
127 139 145 146 149 153 158 160 161 159 158 159 158 157 154 152 152 150 149 147 146 143 140 136 133 130 129 133 136 137 137 133 128 127 125 123 121 119 117 117 114 114 114 114 114 113 111 108 105 103 108 110 106 101 101 105 105 110 112 110 106 104 103 98 99 97 107 98 79 84 82 81 79 72 70 71 76 80 79 78 78 82 84 82 79
129 135 139 143 144 152 159 158 157 157 159 159 157 157 155 154 153 151 149 148 147 145 140 135 132 130 128 128 130 134 136 132 126 125 125 124 119 116 119 120 115 114 115 118 120 119 117 112 108 107 111 112 109 104 101 105 110 116 113 108 104 102 101 96 93 85 90 72 73 100 95 86 85 77 70 73 78 80 82 80 79 80 83 87 83
130 134 135 139 144 154 158 157 156 158 160 158 158 158 155 155 152 150 149 148 148 144 139 136 134 131 129 126 126 130 134 133 130 129 127 125 123 123 122 119 118 117 117 121 124 124 121 116 113 111 114 114 110 104 102 106 112 118 115 109 107 104 102 97 87 67 69 53 68 105 100 89 87 79 72 76 82 80 81 82 81 79 82 87 83
133 135 134 138 147 154 157 156 156 157 159 158 157 156 155 154 150 149 148 149 147 143 141 137 135 131 127 123 120 125 131 134 134 134 131 131 133 131 123 119 121 122 123 126 129 129 125 121 119 118 121 117 111 105 102 105 112 120 119 114 110 105 99 90 77 55 55 64 85 102 96 90 87 84 80 79 87 86 80 82 83 81 85 85 83
136 136 135 142 149 153 156 155 155 156 157 156 154 153 154 152 148 147 148 149 146 144 142 138 136 130 125 121 119 123 129 134 137 138 136 135 132 128 123 125 128 127 128 130 133 132 129 128 124 126 128 119 112 107 101 104 112 120 119 114 107 101 90 76 74 69 72 83 99 104 95 91 88 88 87 81 86 83 77 83 86 86 87 85 83
139 137 138 148 151 154 156 154 154 155 155 154 152 151 151 149 147 147 146 147 145 144 142 139 136 130 127 126 128 130 132 135 140 142 140 135 130 131 131 133 137 136 136 136 137 134 134 135 134 134 132 124 118 107 100 104 111 117 115 112 105 95 82 64 57 70 85 99 100 95 89 89 89 90 88 83 82 75 78 86 88 87 86 84 84
140 135 143 154 152 155 155 153 153 154 155 153 151 148 149 149 149 148 146 146 144 143 141 140 137 136 135 133 135 135 139 139 141 144 141 134 131 136 139 140 144 143 140 141 140 137 139 138 140 140 135 135 127 117 112 107 106 112 115 114 107 91 76 59 48 64 90 106 104 98 93 92 92 93 88 84 81 78 83 87 88 88 86 85 87
139 135 149 155 151 155 154 153 152 151 152 151 149 147 149 150 151 152 149 147 144 144 144 145 144 146 145 140 139 141 145 141 140 142 138 134 132 138 141 141 145 146 142 145 147 146 147 144 148 150 152 154 142 134 132 124 108 108 122 122 113 94 74 60 55 71 93 103 106 102 95 93 95 94 89 88 83 81 85 86 87 87 84 86 88
134 137 150 150 149 156 154 153 152 150 151 149 149 149 151 153 153 153 150 148 146 148 150 150 150 154 152 144 142 146 148 144 142 138 130 134 138 143 145 141 144 148 147 151 157 158 158 157 158 157 162 168 170 168 154 151 136 119 130 130 123 101 77 63 59 76 99 100 100 100 96 95 96 90 86 90 86 82 84 86 88 88 85 87 87
131 137 144 144 147 156 155 154 154 152 153 150 149 150 153 155 155 154 152 152 151 152 153 152 153 155 152 144 141 145 148 145 142 133 124 136 143 143 145 137 139 144 143 145 151 160 166 168 165 158 166 176 179 176 174 184 163 141 139 139 135 106 81 60 60 83 103 105 102 99 99 99 98 93 90 92 89 84 83 84 86 88 87 86 86
130 134 138 142 145 152 156 156 156 154 152 147 146 149 155 156 155 153 152 154 155 155 154 152 151 149 146 139 137 140 147 146 141 136 130 139 141 139 139 132 135 138 136 139 140 150 160 166 170 171 178 187 194 190 192 191 172 158 147 147 143 109 89 61 64 89 108 114 109 100 100 102 102 96 95 95 92 89 86 82 81 87 89 88 88
130 134 137 142 142 147 153 157 157 149 143 141 145 149 151 153 151 151 152 155 155 155 155 151 147 143 139 134 135 138 142 144 141 139 133 133 132 132 135 132 138 142 146 160 158 163 172 175 179 190 195 197 217 234 220 198 192 186 159 152 144 114 91 67 69 90 112 119 115 104 103 110 111 99 96 98 95 93 90 83 81 85 87 88 89
133 136 136 140 141 142 145 151 150 139 137 144 148 147 146 148 149 151 152 152 151 153 151 145 142 138 135 134 134 133 134 139 140 138 134 131 132 134 139 141 146 150 175 198 189 182 193 199 195 202 210 218 230 237 226 209 204 193 166 149 140 119 95 83 82 89 106 118 120 108 101 114 118 109 102 102 99 96 92 88 86 84 84 86 87
134 136 138 140 138 137 140 140 135 133 141 149 149 149 151 151 152 154 152 151 149 147 144 136 137 136 134 134 127 124 123 125 124 119 122 131 140 146 154 162 161 187 200 195 191 185 193 204 209 214 221 233 232 222 218 213 203 181 162 150 140 124 107 97 100 110 109 114 119 101 95 111 114 112 109 105 103 99 95 92 85 79 82 84 85
135 137 137 138 137 136 133 130 129 137 144 149 153 156 159 157 154 159 159 158 153 144 140 134 136 137 134 129 121 123 120 118 117 107 116 148 161 168 177 181 193 315 177 165 174 177 184 193 206 215 218 225 220 210 210 205 194 171 160 153 145 126 99 78 107 122 125 120 114 96 99 111 110 114 114 107 105 101 99 92 84 79 77 75 79
130 134 136 139 143 139 129 128 136 145 147 148 156 160 162 162 158 163 163 159 152 143 142 140 143 145 141 138 134 137 132 134 142 141 160 178 184 191 187 179 126 358 16 157 160 154 156 153 170 194 202 206 202 204 205 197 187 167 161 160 155 124 82 81 112 114 120 124 107 100 108 112 113 117 115 110 107 103 101 97 94 92 75 64 72
125 131 143 144 147 148 135 134 145 147 149 153 159 163 166 166 164 164 159 154 149 147 150 150 154 153 150 148 145 145 143 146 148 152 168 175 193 205 192 182 165 15 5 188 187 145 100 90 102 153 185 194 195 195 194 191 187 172 166 171 165 120 87 114 134 114 114 116 98 102 111 112 118 122 118 115 113 108 104 103 101 93 72 60 66
129 136 131 111 127 153 142 136 148 150 155 160 160 164 166 166 164 161 156 154 153 154 155 155 159 157 152 150 149 150 151 153 148 151 167 175 201 212 196 184 171 109 92 226 269 289 327 359 21 17 193 196 197 195 200 207 192 178 176 181 170 127 114 140 152 144 132 121 99 106 115 117 124 127 123 119 116 114 109 105 100 90 73 65 67
135 133 106 96 117 152 148 140 151 154 156 158 160 164 164 165 163 160 159 157 158 159 159 160 162 157 153 154 157 158 155 157 154 157 169 180 205 214 204 189 172 159 160 230 287 305 315 334 357 308 216 192 201 203 215 224 202 187 187 184 174 166 186 162 152 149 144 127 103 110 123 126 131 131 129 125 120 119 115 111 103 92 75 73 75
131 119 115 121 125 142 144 142 150 154 154 155 160 160 160 165 163 163 162 160 162 164 163 165 164 160 159 162 168 165 158 160 162 169 174 180 195 210 215 199 187 183 167 195 248 309 316 315 322 295 275 270 264 265 249 228 199 194 198 186 189 195 194 176 149 137 135 123 104 117 132 133 138 135 131 128 125 123 121 116 105 95 87 85 83
124 116 133 147 134 138 144 143 144 149 152 152 155 156 159 164 165 166 165 164 167 167 168 169 168 166 167 170 173 166 156 161 165 172 181 187 192 202 211 204 204 191 167 183 207 269 304 291 289 280 285 292 282 279 271 236 191 191 210 198 203 202 185 171 155 144 139 124 112 128 139 139 141 137 131 130 129 128 126 120 109 97 95 92 84
127 121 133 141 137 145 150 143 142 149 152 151 152 157 162 164 168 170 168 170 170 168 171 174 173 169 170 172 171 160 149 158 168 176 190 200 202 204 206 205 214 204 179 187 205 221 262 267 261 256 261 277 282 277 266 253 222 205 209 207 205 201 183 160 149 145 141 127 125 137 143 143 141 138 134 134 134 132 129 124 116 101 102 98 82
123 120 125 135 139 144 149 146 148 151 150 151 153 158 164 166 171 172 173 176 170 169 172 174 174 168 170 170 163 156 150 156 170 186 201 206 214 218 217 219 228 225 189 196 223 243 275 253 246 255 252 261 286 286 264 252 250 234 210 211 205 196 182 156 139 136 136 124 125 139 148 147 143 143 139 138 140 137 134 128 122 112 116 108 83
122 125 126 134 139 139 143 146 151 152 148 150 155 160 164 169 174 178 180 175 168 171 170 167 165 164 169 167 162 161 164 167 169 188 213 216 223 228 230 235 242 249 209 228 251 243 281 241 231 251 251 255 275 278 279 257 234 245 223 205 204 198 168 148 135 126 129 120 122 141 155 153 147 148 145 143 143 141 138 134 128 119 126 120 90
128 129 129 133 138 139 140 143 150 154 150 149 157 161 162 166 175 182 180 171 169 173 168 160 156 161 164 165 171 170 174 178 173 188 219 230 232 225 226 234 237 232 204 229 239 229 270 239 217 232 233 257 262 227 284 269 223 234 239 208 209 203 135 134 128 118 125 125 128 144 158 159 152 152 151 148 146 143 138 133 130 120 123 128 97
134 133 133 133 138 141 142 147 152 154 151 153 157 155 156 163 172 180 176 171 172 170 168 168 162 160 158 161 174 176 177 180 181 193 208 216 211 203 206 201 202 207 194 204 229 237 263 236 220 236 230 254 256 209 275 275 240 216 231 225 212 185 109 119 133 138 146 147 142 144 156 164 160 159 155 151 146 139 135 128 128 119 115 121 110
139 139 137 138 144 146 148 151 150 151 154 158 156 152 155 162 168 174 174 175 175 170 168 172 170 164 159 163 170 172 176 179 183 189 194 199 193 193 205 206 212 219 213 215 230 238 251 241 229 239 235 233 239 223 258 277 270 225 217 212 206 139 97 115 159 166 167 152 142 143 152 160 160 162 156 151 147 137 133 126 124 122 113 117 121
143 141 138 144 151 152 153 152 151 152 156 160 157 152 154 157 160 163 171 177 172 171 170 168 172 169 163 169 169 165 173 182 185 187 190 196 191 193 212 218 218 223 228 227 230 239 245 242 227 213 207 198 210 217 240 269 288 283 237 200 185 115 102 122 167 169 166 149 143 143 144 148 151 154 150 147 145 136 134 129 123 127 124 120 123
147 146 143 145 149 152 153 151 151 152 157 163 156 151 153 155 159 161 168 172 167 169 171 172 174 171 171 177 171 162 168 179 184 186 190 190 179 188 212 217 215 227 230 227 230 236 236 229 216 206 194 179 191 217 274 302 287 304 309 264 116 110 114 131 157 161 165 156 149 147 142 139 137 140 142 138 133 129 132 133 133 141 142 132 127
151 153 148 146 148 152 152 150 150 150 156 162 152 148 152 155 159 162 164 165 167 170 171 180 178 170 180 188 178 168 169 178 185 184 184 189 183 188 205 205 202 220 220 219 230 232 233 227 203 197 199 191 201 241 311 319 277 344 7 4 53 99 119 121 136 151 160 161 155 152 149 141 132 132 137 134 128 123 124 125 125 137 143 136 130
152 156 152 149 150 153 153 151 149 150 155 158 152 149 150 153 157 161 164 163 168 175 175 181 175 169 181 185 175 174 173 178 192 191 187 199 202 201 201 197 196 206 208 211 224 224 235 237 213 226 226 206 240 286 331 319 292 44 66 22 32 81 109 113 128 140 146 157 162 158 152 144 139 137 135 132 136 135 131 127 121 124 127 124 125
150 153 153 151 152 155 154 152 148 149 155 156 151 149 148 149 154 158 162 162 166 172 172 171 172 174 185 186 173 173 177 178 188 195 198 205 213 213 198 193 195 197 207 213 216 209 211 228 211 236 222 186 310 256 12 42 48 43 66 58 33 60 98 109 119 126 136 147 153 156 156 154 151 144 136 137 145 146 142 137 130 127 125 126 128
151 154 156 153 154 155 154 152 148 147 154 153 147 147 148 147 149 154 155 155 156 154 156 159 166 170 178 182 170 170 180 179 182 191 201 208 212 209 189 187 191 188 202 209 206 198 193 191 171 166 158 119 91 136 131 61 62 47 56 66 60 85 106 113 118 120 130 131 130 137 144 151 152 149 153 161 160 153 150 143 141 141 135 139 137
154 155 156 157 155 153 152 150 146 146 148 149 148 146 144 142 141 143 143 141 138 138 146 149 149 154 163 169 163 165 169 168 177 186 194 205 202 189 182 181 177 174 190 201 187 183 188 189 174 160 149 134 115 127 137 88 69 65 78 75 73 110 116 121 129 125 119 119 120 117 123 140 148 150 157 166 163 153 157 155 148 152 144 140 154
159 157 157 157 155 154 153 148 145 145 146 147 146 142 139 138 135 134 138 138 133 133 138 136 134 135 139 151 157 158 153 154 170 177 180 189 175 163 166 165 169 172 182 193 177 172 179 178 182 178 166 166 155 101 121 112 87 85 100 103 119 156 109 102 117 126 122 125 127 123 128 139 142 151 162 168 156 148 159 158 136 128 135 129 139
163 164 160 155 156 160 156 148 146 143 144 146 142 141 138 137 138 136 138 139 131 127 124 116 118 122 122 134 145 145 147 149 155 161 170 175 158 152 156 158 182 189 183 187 179 174 171 162 189 188 170 172 170 158 139 122 106 88 88 102 130 136 109 96 97 111 117 119 121 128 143 143 145 156 163 163 146 132 138 143 121 110 125 125 110
170 171 161 151 155 163 154 146 150 143 136 138 139 141 139 138 142 140 143 142 137 139 134 122 116 118 118 122 127 130 141 143 143 148 157 170 161 151 153 163 188 201 192 185 183 182 168 160 190 191 174 172 168 172 166 139 118 112 106 95 93 85 84 100 93 86 100 102 100 110 130 142 150 153 148 145 136 119 110 112 104 100 109 102 94
178 172 153 146 153 162 156 146 147 142 131 129 130 132 136 140 137 135 143 135 129 133 129 126 121 120 120 116 116 118 123 131 136 140 144 165 170 156 160 173 184 201 204 191 187 188 170 174 190 183 176 168 156 156 168 171 141 122 113 93 90 84 75 95 84 77 94 98 98 113 141 145 139 141 139 128 122 116 107 102 94 92 101 93 93
180 166 147 147 153 158 156 144 138 134 130 128 123 123 129 132 121 119 130 124 115 115 116 123 124 121 119 113 112 114 115 122 127 128 135 153 165 165 173 181 179 189 205 200 194 191 182 195 195 178 174 165 153 145 149 185 157 132 117 56 76 95 149 151 97 79 91 96 100 113 132 136 129 136 135 118 113 112 102 93 86 88 99 90 91
170 158 148 149 150 148 142 136 135 134 134 134 126 124 119 114 114 110 115 117 113 116 122 126 127 125 123 118 117 119 121 125 126 118 119 132 149 160 168 172 178 186 198 204 203 197 194 203 196 179 178 168 153 139 143 211 182 155 172 140 91 72 188 157 136 85 78 84 94 107 119 126 129 133 126 114 109 104 95 94 91 94 101 96 95
161 151 142 142 139 135 132 131 137 139 139 139 137 135 122 109 117 113 112 121 128 140 138 136 138 131 126 124 121 122 122 125 128 120 117 125 140 155 167 167 178 188 192 204 211 206 201 205 198 184 186 180 157 134 148 217 214 184 213 226 199 198 156 150 158 85 71 78 93 106 114 124 132 129 121 114 108 103 101 102 96 94 97 92 85
144 120 116 128 125 119 126 134 139 142 141 142 146 142 128 120 135 129 133 148 152 150 142 139 135 123 121 122 120 124 124 121 122 125 128 134 138 148 170 169 170 180 181 197 209 199 188 195 201 191 198 206 174 154 164 202 217 205 219 231 166 134 141 141 145 132 99 82 93 103 111 122 131 131 127 122 116 118 118 110 102 99 97 93 87
118 105 109 123 123 121 138 144 143 144 143 144 148 141 130 136 159 159 176 180 153 139 135 131 122 120 128 129 128 130 131 128 126 129 133 135 135 133 143 156 163 169 169 161 146 154 161 168 185 186 190 201 183 173 173 178 205 211 206 202 139 125 137 123 119 133 130 105 98 100 112 123 130 132 132 124 118 126 127 115 109 107 104 105 98
121 119 121 130 134 138 148 148 144 143 146 149 150 145 138 144 168 197 196 164 138 138 139 131 127 135 142 144 145 138 134 134 131 133 133 133 136 128 127 135 135 141 145 134 112 111 122 138 156 169 170 175 171 173 166 162 182 189 191 198 160 128 124 104 106 115 114 120 129 123 117 115 116 118 121 115 108 112 118 117 117 116 111 99 81
122 131 130 131 139 144 144 144 144 145 152 159 158 154 145 145 170 212 185 145 142 153 147 140 142 147 152 153 149 142 139 137 131 135 136 136 136 127 124 113 95 104 118 118 114 108 104 112 120 131 143 143 143 153 147 139 147 152 168 183 153 135 129 107 107 107 105 112 126 142 134 121 117 126 131 126 115 108 106 107 111 111 108 84 61
118 135 135 133 141 144 141 142 146 153 164 169 166 160 150 151 174 198 168 149 159 165 150 151 156 155 160 161 158 156 150 139 132 129 126 129 127 120 123 118 102 101 112 118 122 113 104 104 103 102 112 118 125 133 127 119 118 124 139 148 139 144 145 136 143 128 113 119 124 138 137 131 138 150 149 139 130 124 116 109 107 106 103 81 52